Location: ??
(35.1715°N, 139.6450°E)
Time: 06:16:17
(UTC+00:00)

YAOGAN 6 - Pass Details

Date: 05 August 2024
Orbit: 396 x 415 km, 97.2° (Epoch: 13 September)

Event Time Altitude Azimuth Distance (km) Brightness Sun altitude
Rises 19:04:15 0° 354° (N) 2,417 6.4 -10.1°
Reaches altitude 10° 19:06:37 10° 337° (NNW) 1,548 5.2 -9.7°
Maximum altitude 19:09:06 20° 288° (WNW) 1,079 3.9 -9.2°
Enters shadow 19:11:09 12° 245° (WSW) 1,413 4.2 -8.9°
